Regional Weather Roundup
Issued by NWS

Home | Current Version | Previous Version | Text Only | Print | Product List | Glossary On
Versions: 1 2 3 4 5 6 7 8 9 10 11 12 13 14 15 16 17 18 19 20 21 22 23 24 25 26 27 28 29 30 31 32 33 34 35 36 37 38 39 40 41 42 43 44 45 46 47 48 49
000
ASUS45 KSLC 161710
RWRUT

UTAH REGIONAL WEATHER ROUNDUP
NATIONAL WEATHER SERVICE SALT LAKE CITY UT
1100 AM MDT TUE SEP 16 2014

UTZ001>011-023>025-161800-

NORTHERN UTAH

CITY           SKY/WX    TMP DP  RH WIND       PRES   REMARKS
HILL AFB       PTSUNNY   70  41  34 E10       30.12F
LOGAN          MOSUNNY   64  43  46 NE3       30.14F
OGDEN          PTSUNNY   72  42  34 SE8       30.10F
PROVO AIRPORT  SUNNY     72  50  46 NW12      30.17S
SALT LAKE CITY PTSUNNY   78  43  28 SE12      30.10F
VERNAL         SUNNY     68  43  40 VRB3      30.24F
WENDOVER       SUNNY     73  39  29 E7        30.10S
HEBER CITY     SUNNY     64  43  45 CALM      30.23F
WEST JORDAN    SUNNY     75  45  33 SE7       30.15S

$$

UTZ012>022-026-027-161800-

SOUTHERN UTAH

CITY           SKY/WX    TMP DP  RH WIND       PRES   REMARKS
BRYCE CANYON   SUNNY     67  45  45 S5        30.39S
CEDAR CITY     SUNNY     78  42  27 SW6       30.20F
MILFORD        SUNNY     76  43  30 S10       30.16S
MOAB/CYNLANDS  SUNNY     81  45  28 E9        30.16F
PRICE          SUNNY     75  37  25 VRB5      30.27S
ST GEORGE      SUNNY     79  45  29 CALM      30.06F
KANAB            N/A     81  45  28 N3        30.21F

$$

REGIONAL REPORTS     COLORADO/ARIZONA

CITY           SKY/WX    TMP DP  RH WIND       PRES   REMARKS
CRAIG, CO      SUNNY     71  42  35 NE6       30.29F
GRAND JUNCTION SUNNY     74  41  30 SE5       30.22F
RIFLE          SUNNY     67  41  38 CALM      30.28F
MONTROSE       SUNNY     74  45  35 N6        30.29F
CORTEZ         SUNNY     73  50  44 CALM      30.30F
PAGE, AZ       SUNNY     81  50  33 VRB6      30.17S
GRAND CANYON   SUNNY     72  48  42 SE3       30.32S
KINGMAN        SUNNY     83  58  42 SW9       30.08S
FLAGSTAFF      PTSUNNY   68  52  56 VRB3      30.34S

$$

REGIONAL REPORTS    NEVADA/IDAHO/WYOMING

CITY           SKY/WX    TMP DP  RH WIND       PRES   REMARKS
LAS VEGAS, NV  SUNNY     92  47  21 SW3       29.92S
ELY            SUNNY     79  37  22 S9        30.23F
ELKO           SUNNY     72  31  22 CALM      30.13F
POCATELLO, ID  PTSUNNY   65  43  44 E8        30.13F
BURLEY         MOSUNNY   72  48  42 NE3       30.06S
EVANSTON, WY   SUNNY     70  37  29 SW8       30.31S
ROCK SPRINGS   MOSUNNY   69  34  27 VRB5      30.29F

$$



USA.gov is the U.S. government's official web portal to all federal, state and local government web resources and services.